Weather History for Zanesville, OH

Change the Weather History Date:

Monday, June 24, 2013

  Actual Average Record
Temperature  
Mean Temperature 76 °F 71 °F  
Max Temperature 89 °F 83 °F 95 °F (1966)
Min Temperature 63 °F 60 °F 43 °F (1961)
Degree Days  
Heating Degree Days 0 0  
Month to date heating degree days 18 30  
Since 1 June heating degree days 18 30  
Since 1 July heating degree days 5569 5569  
Cooling Degree Days 11 7  
Month to date cooling degree days 109 115  
Year to date cooling degree days 217 169  
Since 1 June cooling degree days 109 115  
Growing Degree Days 24 (Base 50)    
Moisture  
Dew Point 65 °F    
Average Humidity 73    
Maximum Humidity 100    
Minimum Humidity 45    
Precipitation  
Precipitation T in 0.14 in 1.65 in (1957)
Month to date precipitation 1.87 3.22  
Year to date precipitation 12.46 18.68  
Sea Level Pressure  
Sea Level Pressure 30.09 in    
Wind  
Wind Speed 4 mph (SW)    
Max Wind Speed 21 mph    
Max Gust Speed 32 mph    
Visibility 9 miles    
Events Rain , Thunderstorm    
T = Trace of Precipitation, MM = Missing Value Source: NWS Daily Summary

Daily Weather History Graph

Daily Weather History Graph

Search for Another Location

Airport:

Trip Planner

Search our weather history database for the weather conditions in past years. The results will help you decide how hot, cold, wet, or windy it might be!

Date:

Astronomy

Jun. 24, 2013 Rise Set
Actual Time 5:59 AM EDT 9:00 PM EDT
Civil Twilight 5:27 AM EDT 9:32 PM EDT
Nautical Twilight 4:45 AM EDT 10:14 PM EDT
Astronomical Twilight 3:56 AM EDT 11:03 PM EDT
Moon 10:01 PM EDT (6/24) 7:25 AM EDT (6/24)
Length of Visible Light 16h 05m
Length of Day
15h 00m
Full, 98% of the Moon is Illuminated
Jun 24
Full
Jun 30
Last Quarter
Jul 8
New
Jul 15
First Quarter
Jul 22
Full

Hourly Weather History & Observations

Time (EDT) Temp. Heat Index Dew Point Humidity Pressure Visibility Wind Dir Wind Speed Gust Speed Precip Events Conditions
12:53 AM 70.0 °F - 63.0 °F 78% 30.11 in 10.0 mi SSW 4.6 mph - N/A   Clear
1:53 AM 68.0 °F - 64.0 °F 87% 30.10 in 10.0 mi Calm Calm - N/A   Clear
2:53 AM 66.0 °F - 64.0 °F 93% 30.10 in 7.0 mi Calm Calm - N/A   Clear
3:53 AM 64.9 °F - 63.0 °F 93% 30.10 in 8.0 mi Calm Calm - N/A   Clear
4:53 AM 64.0 °F - 62.1 °F 93% 30.11 in 8.0 mi Calm Calm - N/A   Clear
5:53 AM 63.0 °F - 62.1 °F 97% 30.11 in 6.0 mi Calm Calm - N/A   Clear
6:53 AM 64.0 °F - 63.0 °F 96% 30.12 in 5.0 mi Calm Calm - N/A   Clear
7:53 AM 69.1 °F - 64.9 °F 87% 30.14 in 10.0 mi Calm Calm - N/A   Clear
8:53 AM 73.9 °F - 64.0 °F 71% 30.14 in 10.0 mi South 3.5 mph - N/A   Clear
9:53 AM 79.0 °F - 64.9 °F 62% 30.16 in 10.0 mi SSW 4.6 mph - N/A   Clear
10:53 AM 82.9 °F 84.6 °F 64.9 °F 54% 30.14 in 10.0 mi SW 5.8 mph - N/A   Clear
11:53 AM 84.0 °F 85.8 °F 64.9 °F 53% 30.13 in 10.0 mi SW 3.5 mph - N/A   Partly Cloudy
12:53 PM 86.0 °F 87.6 °F 64.9 °F 49% 30.12 in 10.0 mi SSW 8.1 mph - N/A   Mostly Cloudy
1:53 PM 86.0 °F 87.3 °F 64.0 °F 48% 30.10 in 10.0 mi WSW 9.2 mph - N/A   Partly Cloudy
2:53 PM 82.0 °F 83.8 °F 64.9 °F 56% 30.08 in 10.0 mi West 8.1 mph - N/A   Mostly Cloudy
3:53 PM 86.0 °F 86.8 °F 63.0 °F 46% 30.06 in 10.0 mi Variable 3.5 mph - N/A   Clear
4:34 PM 84.2 °F 85.0 °F 62.6 °F 48% 30.07 in 10.0 mi West 8.1 mph - N/A Thunderstorm Scattered Clouds
4:53 PM 78.1 °F - 64.0 °F 62% 30.05 in 10.0 mi WNW 11.5 mph 20.7 mph N/A Thunderstorm Thunderstorm
5:12 PM 77.0 °F - 64.4 °F 65% 30.07 in 8.0 mi WNW 8.1 mph - 0.00 in Rain Light Rain
5:53 PM 80.1 °F 82.3 °F 66.9 °F 64% 30.04 in 10.0 mi WSW 5.8 mph - 0.00 in   Partly Cloudy
6:53 PM 82.0 °F 84.1 °F 66.0 °F 58% 30.02 in 10.0 mi WSW 5.8 mph - N/A   Clear
7:53 PM 81.0 °F 83.3 °F 66.9 °F 62% 30.03 in 10.0 mi SSW 4.6 mph - N/A   Clear
8:53 PM 79.0 °F - 66.9 °F 66% 30.04 in 10.0 mi Calm Calm - N/A   Clear
9:53 PM 75.9 °F - 66.9 °F 74% 30.03 in 10.0 mi South 3.5 mph - N/A   Clear
10:53 PM 73.9 °F - 66.9 °F 79% 30.05 in 9.0 mi South 6.9 mph - N/A   Clear
11:53 PM 73.9 °F - 66.9 °F 79% 30.06 in 10.0 mi SSW 5.8 mph - N/A   Mostly Cloudy